Regional Weather Roundup
Issued by NWS

Home | Current Version | Previous Version | Text Only | Print | Product List | Glossary Off
Versions: 1 2 3 4 5 6 7 8 9 10 11 12 13 14 15 16 17 18 19 20 21 22 23 24 25 26 27 28 29 30 31 32 33 34 35 36 37 38 39 40 41 42 43 44 45 46 47 48 49 50

000
ASUS43 KLSX 250907
RWRMO

WEATHER SUMMARY FOR MISSOURI
NATIONAL WEATHER SERVICE SPRINGFIELD MO
400 AM CDT WED APR 25 2018

NOTE: "FAIR" INDICATES FEW OR NO CLOUDS BELOW 12,000 FEET WITH NO
       SIGNIFICANT WEATHER AND/OR OBSTRUCTIONS TO VISIBILITY.
       CURRENT SKY AND/OR WEATHER CONDITIONS ARE NOT AVAILABLE FOR
       CHILLICOTHE AND FARMINGTON.

MOZ001>031-035>038-043-044-053-054-251000-
...NORTHERN AND WESTERN MISSOURI...

CITY           SKY/WX    TMP DP  RH WIND       PRES   REMARKS
KANSAS CTY INT CLOUDY    54  43  66 N10       30.12R
KANSAS C DTWN  MOCLDY    57  45  64 N10       30.10F
LEE`S SUMMIT   CLOUDY    57  47  69 N10       30.10S
ST JOSEPH      CLOUDY    52  45  77 N12       30.14S
CHILLICOTHE      N/A     56  41  57 N8G17     30.11R
KIRKSVILLE     CLOUDY    55  40  56 N12       30.09R

$$
MOZ066>068-077>081-088>096-101>105-251000-
...SOUTHWEST MISSOURI...

CITY           SKY/WX    TMP DP  RH WIND       PRES   REMARKS
SPRINGFIELD    CLOUDY    53  42  66 CALM      30.04F
JOPLIN         MOCLDY    50  45  83 NW5       30.07F
BRANSON        CLEAR     54  39  58 CALM      30.07S

$$
MOZ032>034-039>042-045>050-055>058-069>072-251000-
...CENTRAL MISSOURI...

CITY           SKY/WX    TMP DP  RH WIND       PRES   REMARKS
COLUMBIA       PTCLDY    55  42  61 NW10      30.05R
JEFFERSON CITY CLEAR     52  40  63 NW6       30.04R
ROLLA          CLEAR     52  39  61 NW7       30.03R
SEDALIA        CLOUDY    56  46  69 NW6       30.07R
WHITEMAN AFB   MOCLDY    56  45  68 N6        30.03S
WARRENSBURG    CLOUDY    55  43  62 N8        30.07F
OSAGE BEACH    MOCLDY    52  44  74 CALM      30.05S

$$
MOZ051-052-059>065-251000-
...EAST CENTRAL MISSOURI...

CITY           SKY/WX    TMP DP  RH WIND       PRES   REMARKS
ST LOUIS INTL  CLEAR     52  39  61 W3        29.99S
SPIRIT OF STL  CLEAR     43  41  93 SW6       29.98S
ST CHARLES     CLEAR     48  37  65 NW3       29.98R

$$
MOZ072>076-082>087-097>100-106>115-251000-
...SOUTH CENTRAL AND SOUTHEAST MISSOURI...

CITY           SKY/WX    TMP DP  RH WIND       PRES   REMARKS
CAPE GIRARDEAU FOG       46  44  93 CALM      29.98S VSB 3/4
FARMINGTON     CLEAR     47  45  93 CALM      30.00S
POPLAR BLUFF   FAIR      49  49 100 CALM      29.99S FOG
WEST PLAINS    CLEAR     49  45  86 CALM      30.04R

$$




USA.gov is the U.S. government's official web portal to all federal, state and local government web resources and services.